KF6ILA Weather Reports


Display with metric or nautical units.
time (UTC)temp
F
wind
direction
speed
MPH
gust
MPH
rain 1hr
in
rain 24hr
in
rain mn
in
humidity
%
barometer
mb
20260506071203 39 255 12.0 21.0 0.00 0.49 0.10 98 1014.1
20260506070909 39 247 14.0 21.0 0.00 0.49 0.10 98 1014.0
20260506070706 39 247 14.0 21.0 0.00 0.49 0.10 98 1014.0
20260506070209 40 250 16.0 21.0 0.00 0.49 0.10 98 1014.0
20260506062233 40 258 12.0 22.0 0.00 0.49 0.10 98 1013.7
20260506061736 40 247 14.0 22.0 0.00 0.49 0.10 98 1013.6
20260506061239 40 261 16.0 21.0 0.00 0.49 0.10 97 1013.8
20260506060742 40 255 16.0 21.0 0.00 0.49 0.10 97 1013.8
20260506060245 40 257 15.0 21.0 0.00 0.49 0.10 97 1013.6
20260506051316 41 258 13.0 21.0 0.00 0.50 0.10 98 1013.5
20260506050321 41 259 11.0 19.0 0.00 0.50 0.10 98 1013.5
20260506044830 41 254 12.0 22.0 0.00 0.50 0.10 97 1013.4
20260506044333 41 256 14.0 22.0 0.00 0.50 0.10 97 1013.4
20260506043835 41 261 15.0 21.0 0.00 0.50 0.10 97 1013.3
20260506043339 41 258 17.0 21.0 0.00 0.50 0.10 97 1013.2
20260506042940 41 257 16.0 23.0 0.00 0.50 0.10 97 1013.1
20260506042842 41 257 16.0 23.0 0.00 0.50 0.10 97 1013.1
20260506042345 41 257 16.0 23.0 0.00 0.50 0.10 97 1013.0
20260506041848 41 256 15.0 22.0 0.00 0.50 0.10 97 1013.0
20260506041351 41 256 16.0 22.0 0.00 0.50 0.10 97 1012.9
20260506040854 41 262 14.0 23.0 0.00 0.50 0.10 97 1012.8
20260506035933 41 261 16.0 22.0 0.00 0.50 0.10 97 1012.6
20260506035900 41 261 16.0 22.0 0.00 0.50 0.10 97 1012.6
20260506035403 41 258 16.0 22.0 0.00 0.50 0.10 97 1012.6
20260506034956 41 255 15.0 22.0 0.00 0.50 0.10 97 1012.6
20260506034906 41 255 15.0 22.0 0.00 0.50 0.10 97 1012.6
20260506034409 41 256 16.0 22.0 0.00 0.50 0.10 97 1012.4
20260506033946 41 257 17.0 22.0 0.00 0.50 0.10 97 1012.3
20260506033912 41 257 17.0 22.0 0.00 0.50 0.10 97 1012.3
20260506033456 41 257 13.0 21.0 0.00 0.50 0.10 97 1012.4
20260506033416 41 257 13.0 21.0 0.00 0.50 0.10 97 1012.4
20260506032917 42 250 14.0 23.0 0.00 0.50 0.10 97 1012.3
20260506032421 42 259 14.0 23.0 0.00 0.50 0.10 96 1012.2
20260506031427 42 269 15.0 21.0 0.00 0.50 0.10 96 1012.1
20260506030930 42 270 13.0 21.0 0.00 0.50 0.10 96 1012.2
20260506025936 42 260 14.0 22.0 0.00 0.50 0.10 95 1012.1
20260506025439 42 256 13.0 22.0 0.00 0.50 0.10 95 1011.9
20260506024942 42 260 12.0 20.0 0.00 0.50 0.10 95 1011.9
20260506023948 42 267 11.0 21.0 0.00 0.50 0.10 94 1011.9
20260506023451 42 257 13.0 24.0 0.00 0.50 0.10 94 1011.8
20260506022955 42 258 16.0 24.0 0.00 0.50 0.10 93 1011.7
20260506022456 42 251 18.0 24.0 0.00 0.50 0.10 93 1011.6
20260506022000 42 252 16.0 24.0 0.00 0.50 0.10 93 1011.6
20260506021006 42 251 16.0 22.0 0.00 0.50 0.10 92 1011.5
20260506020509 43 266 13.0 17.0 0.00 0.50 0.10 91 1011.5
20260506020012 43 264 10.0 23.0 0.00 0.50 0.10 90 1011.4
20260506015514 43 266 13.0 23.0 0.00 0.50 0.10 90 1011.3
20260506015019 43 268 13.0 23.0 0.00 0.50 0.10 89 1011.1
20260506014521 43 270 14.0 21.0 0.00 0.50 0.10 88 1011.1
20260506014256 44 260 13.0 22.0 0.00 0.50 0.10 87 1010.9
20260506014024 44 260 13.0 22.0 0.00 0.50 0.10 87 1010.9
20260506013527 44 266 15.0 24.0 0.00 0.50 0.10 86 1011.0
20260506013219 45 271 15.0 24.0 0.00 0.50 0.10 85 1011.1
20260506013030 45 271 15.0 24.0 0.00 0.50 0.10 85 1011.1
20260506012719 45 277 13.0 19.0 0.00 0.50 0.10 84 1011.2
20260506012533 45 277 13.0 19.0 0.00 0.50 0.10 84 1011.2
20260506012146 45 256 12.0 24.0 0.00 0.50 0.10 84 1011.1
20260506012036 45 256 12.0 24.0 0.00 0.50 0.10 84 1011.1
20260506011539 45 251 14.0 24.0 0.00 0.50 0.10 83 1011.1
20260506011042 46 250 11.0 21.0 0.00 0.50 0.10 82 1011.0
20260506005054 47 267 10.0 23.0 0.00 0.50 0.10 81 1011.0
20260506004100 47 262 9.0 25.0 0.00 0.50 0.10 81 1011.0
20260506003603 47 275 12.0 25.0 0.00 0.50 0.10 81 1010.6
20260506003106 48 270 17.0 23.0 0.00 0.50 0.10 80 1010.6
20260506002740 47 267 11.0 25.0 0.00 0.50 0.10 81 1010.6
20260506002609 47 267 11.0 25.0 0.00 0.50 0.10 81 1010.6
20260506002112 47 288 13.0 25.0 0.00 0.50 0.10 81 1010.5
20260506001615 46 276 12.0 20.0 0.00 0.50 0.10 83 1010.4
20260506001118 46 261 13.0 24.0 0.00 0.50 0.10 83 1010.5
20260506000701 46 266 11.0 29.0 0.00 0.50 0.10 82 1010.4
20260506000622 46 266 11.0 29.0 0.00 0.50 0.10 82 1010.4
20260506000124 47 271 14.0 29.0 0.00 0.50 0.10 79 1010.3
20260505235627 48 255 19.0 28.0 0.00 0.50 0.10 79 1010.5
20260505235129 46 267 16.0 23.0 0.00 0.50 0.10 84 1010.1
20260505234633 46 274 12.0 27.0 0.00 0.50 0.10 83 1010.0
20260505234136 46 279 17.0 28.0 0.00 0.50 0.10 79 1010.0
20260505233639 47 275 16.0 28.0 0.00 0.50 0.10 81 1010.1
20260505233142 46 249 18.0 29.0 0.00 0.50 0.10 79 1010.0
20260505231651 46 254 15.0 31.0 0.00 0.50 0.10 82 1010.2
20260505231154 46 258 19.0 32.0 0.00 0.50 0.10 81 1010.2
20260505230657 46 252 18.0 32.0 0.00 0.50 0.10 81 1009.9
20260505225703 47 289 21.0 29.0 0.00 0.50 0.10 80 1009.8
20260505225206 47 263 11.0 27.0 0.00 0.50 0.10 81 1010.1
20260505224709 48 275 12.0 30.0 0.00 0.50 0.10 80 1010.2
20260505223715 48 257 12.0 30.0 0.00 0.50 0.10 82 1010.3
20260505223218 47 260 19.0 30.0 0.00 0.50 0.10 80 1010.3
20260505222721 48 271 15.0 28.0 0.00 0.50 0.10 81 1010.5
20260505222224 49 255 20.0 29.0 0.00 0.50 0.10 81 1010.4
20260505220733 48 265 20.0 30.0 0.00 0.50 0.10 81 1011.3
20260505220236 49 251 20.0 29.0 0.00 0.50 0.10 82 1011.3
20260505215739 48 263 15.0 28.0 0.00 0.50 0.10 85 1011.3
20260505215242 47 260 22.0 28.0 0.00 0.50 0.10 85 1011.4
20260505214745 48 282 11.0 26.0 0.00 0.50 0.10 88 1011.3
20260505214248 47 266 19.0 30.0 0.00 0.50 0.10 90 1011.4
20260505213752 46 257 16.0 30.0 0.00 0.50 0.10 91 1011.6
20260505213254 46 269 14.0 24.0 0.00 0.50 0.10 92 1011.5
20260505212833 45 261 15.0 25.0 0.00 0.50 0.10 93 1011.7
20260505212757 45 261 15.0 25.0 0.00 0.50 0.10 93 1011.7
20260505212300 45 261 18.0 25.0 0.00 0.50 0.10 93 1011.6
20260505211803 45 267 14.0 26.0 0.00 0.50 0.10 93 1011.7
20260505211346 45 259 14.0 27.0 0.00 0.50 0.10 93 1011.8
20260505211306 45 259 14.0 27.0 0.00 0.50 0.10 93 1011.8
20260505210809 46 261 18.0 28.0 0.00 0.50 0.10 92 1011.8
20260505210312 46 268 17.0 30.0 0.00 0.50 0.10 93 1011.7
20260505205850 45 260 20.0 30.0 0.00 0.50 0.10 93 1011.9
20260505205816 45 260 20.0 30.0 0.00 0.50 0.10 93 1011.9
20260505205318 45 253 16.0 28.0 0.00 0.50 0.10 93 1012.0
20260505204324 45 254 14.0 26.0 0.00 0.50 0.10 94 1011.7
20260505203330 46 262 15.0 30.0 0.00 0.50 0.10 97 1011.6
20260505202833 46 252 20.0 30.0 0.00 0.50 0.10 97 1011.6
20260505201839 45 254 19.0 30.0 0.00 0.50 0.10 99 1011.9
20260505201342 45 267 20.0 28.0 0.00 0.50 0.10 100 1011.8
20260505200845 44 265 17.0 29.0 0.00 0.50 0.10 100 1011.7
20260505200348 44 267 19.0 29.0 0.00 0.50 0.10 100 1011.6
20260505195851 44 243 17.0 27.0 0.00 0.50 0.10 100 1012.0
20260505195354 44 272 13.0 25.0 0.00 0.50 0.10 100 1011.8
20260505194857 43 261 15.0 30.0 0.00 0.50 0.10 100 1011.8
20260505194400 43 269 20.0 30.0 0.01 0.50 0.10 100 1011.9
20260505193903 43 262 20.0 27.0 0.01 0.50 0.10 100 1011.8
20260505193406 43 256 17.0 32.0 0.01 0.50 0.10 100 1011.9
20260505192909 43 256 20.0 32.0 0.01 0.50 0.10 100 1012.0
20260505192412 43 263 20.0 30.0 0.01 0.50 0.10 100 1011.9
20260505191915 42 255 22.0 30.0 0.01 0.50 0.10 100 1012.1
20260505191418 42 258 21.0 30.0 0.01 0.50 0.10 100 1011.9
20260505190921 42 253 21.0 30.0 0.01 0.50 0.10 100 1011.8
20260505190425 42 254 19.0 30.0 0.02 0.50 0.10 100 1011.9
20260505185927 42 257 16.0 28.0 0.02 0.50 0.10 100 1011.8
20260505185431 42 253 14.0 28.0 0.02 0.50 0.10 100 1011.9
20260505184933 42 258 17.0 28.0 0.02 0.50 0.10 100 1011.8
20260505184436 42 264 13.0 24.0 0.02 0.50 0.10 100 1011.8
20260505183939 42 259 12.0 24.0 0.02 0.49 0.09 100 1011.8
20260505183442 42 268 13.0 24.0 0.02 0.49 0.09 100 1011.8
20260505182945 42 268 13.0 24.0 0.02 0.49 0.09 100 1011.8
20260505182448 42 251 17.0 24.0 0.03 0.49 0.09 100 1011.6
20260505181951 42 256 16.0 26.0 0.03 0.49 0.09 100 1011.7
20260505181455 41 259 16.0 26.0 0.03 0.49 0.09 100 1011.6
20260505180957 42 259 15.0 26.0 0.03 0.49 0.09 100 1011.6
20260505180500 41 276 15.0 28.0 0.03 0.48 0.08 100 1011.6
20260505180003 41 266 17.0 28.0 0.03 0.48 0.08 100 1011.3
20260505175506 41 269 16.0 27.0 0.04 0.48 0.08 100 1011.4
20260505175009 41 278 16.0 27.0 0.04 0.48 0.08 100 1011.4
20260505174512 42 276 17.0 26.0 0.04 0.48 0.08 100 1011.3
20260505174015 42 269 17.0 26.0 0.03 0.47 0.07 100 1011.0
20260505173519 42 274 12.0 28.0 0.03 0.47 0.07 100 1010.9
20260505173021 42 259 20.0 28.0 0.04 0.47 0.07 100 1010.7
20260505172524 42 257 17.0 34.0 0.04 0.47 0.07 100 1010.6
20260505172027 42 273 20.0 34.0 0.03 0.46 0.06 100 1010.6
20260505171530 42 257 24.0 34.0 0.03 0.46 0.06 100 1010.7
20260505171033 42 265 16.0 27.0 0.03 0.46 0.06 100 1010.7
20260505170536 43 272 17.0 25.0 0.03 0.45 0.05 100 1010.7
20260505170039 43 270 16.0 25.0 0.03 0.45 0.05 100 1010.6
20260505165542 43 258 15.0 25.0 0.02 0.44 0.04 100 1010.6
20260505165045 43 255 16.0 27.0 0.02 0.44 0.04 100 1010.3
20260505164549 42 269 13.0 27.0 0.02 0.44 0.04 100 1010.4
20260505164051 42 267 13.0 22.0 0.03 0.44 0.04 100 1010.5
20260505163554 42 270 13.0 23.0 0.03 0.44 0.04 100 1010.4
20260505163149 42 269 13.0 24.0 0.03 0.43 0.03 100 1010.4
20260505163057 42 269 13.0 24.0 0.03 0.43 0.03 100 1010.4
20260505162636 42 274 16.0 24.0 0.03 0.43 0.03 100 1010.3
20260505162600 42 274 16.0 24.0 0.03 0.43 0.03 100 1010.3
20260505162103 42 271 14.0 22.0 0.03 0.43 0.03 100 1010.2
20260505161606 42 285 12.0 24.0 0.03 0.43 0.03 100 1010.2
20260505161109 42 284 16.0 30.0 0.03 0.43 0.03 100 1010.2
20260505160612 42 284 16.0 30.0 0.02 0.42 0.02 100 1010.2
20260505160115 42 293 21.0 30.0 0.02 0.42 0.02 100 1010.2
20260505153133 41 269 21.0 30.0 0.00 0.40 0.00 100 1009.9
20260505152636 41 270 21.0 31.0 0.00 0.40 0.00 100 1009.9
20260505152139 41 272 21.0 31.0 0.00 0.40 0.00 100 1009.8
20260505151642 41 262 21.0 32.0 0.00 0.40 0.00 100 1009.7
20260505151145 41 272 18.0 32.0 0.01 0.40 0.00 100 1009.8
20260505150648 41 263 22.0 32.0 0.01 0.40 0.00 100 1009.8
20260505150151 41 275 16.0 33.0 0.01 0.40 0.00 100 1009.7
20260505140227 42 249 18.0 27.0 0.07 0.39 0.39 100 1009.6
20260505130303 42 267 12.0 20.0 0.05 0.32 0.32 100 1009.4
20260505124812 42 282 11.0 25.0 0.04 0.30 0.30 100 1009.3
20260505124316 42 290 16.0 25.0 0.04 0.30 0.30 100 1009.3
20260505123818 42 286 10.0 21.0 0.03 0.29 0.29 100 1009.3
20260505123322 42 256 12.0 21.0 0.03 0.29 0.29 100 1009.3
20260505122824 42 261 15.0 21.0 0.01 0.27 0.27 100 1009.1
20260505122327 42 271 11.0 18.0 0.01 0.27 0.27 100 1008.9
20260505121830 42 264 9.0 18.0 0.01 0.27 0.27 100 1009.0
20260505121333 43 274 9.0 24.0 0.02 0.27 0.27 100 1009.1
20260505120836 43 255 9.0 25.0 0.02 0.27 0.27 100 1009.0
20260505115842 43 255 12.0 21.0 0.02 0.27 0.27 100 1009.2
20260505115345 43 247 12.0 24.0 0.01 0.26 0.26 100 1009.1
20260505114848 43 256 13.0 28.0 0.01 0.26 0.26 100 1009.1
20260505114351 43 268 16.0 30.0 0.02 0.26 0.26 100 1009.1
20260505113855 43 268 20.0 30.0 0.02 0.27 0.26 100 1009.1
20260505113357 43 266 16.0 26.0 0.03 0.27 0.26 100 1009.2
20260505112901 43 266 15.0 28.0 0.03 0.27 0.26 100 1009.3
20260505111907 43 267 16.0 26.0 0.04 0.27 0.26 100 1009.3
20260505111409 43 278 16.0 26.0 0.04 0.26 0.25 100 1009.4
20260505110913 43 272 16.0 32.0 0.04 0.26 0.25 100 1009.4
20260505110415 43 275 19.0 32.0 0.05 0.26 0.25 100 1009.3
20260505101943 42 282 12.0 20.0 0.08 0.23 0.22 100 1009.4
20260505101446 42 278 12.0 20.0 0.08 0.22 0.21 100 1009.3
20260505100949 42 282 10.0 17.0 0.09 0.22 0.21 99 1009.4
20260505095955 42 281 10.0 22.0 0.10 0.20 0.19 100 1009.5
20260505095457 42 270 11.0 22.0 0.12 0.20 0.19 100 1009.6
20260505095001 42 258 15.0 22.0 0.12 0.19 0.18 100 1009.5
20260505094504 42 266 14.0 22.0 0.13 0.19 0.18 100 1009.6
20260505094007 42 263 12.0 20.0 0.13 0.18 0.17 100 1009.6
20260505093510 42 255 9.0 16.0 0.14 0.18 0.17 100 1009.6
20260505093013 42 261 8.0 23.0 0.13 0.17 0.16 100 1009.8
20260505092516 42 254 7.0 23.0 0.12 0.16 0.15 100 1009.7
20260505092019 42 252 13.0 20.0 0.11 0.15 0.14 100 1009.9
20260505091522 41 257 11.0 20.0 0.10 0.14 0.13 99 1009.8
20260505091025 41 253 9.0 17.0 0.10 0.13 0.12 99 1009.9
20260505090527 41 262 12.0 17.0 0.10 0.12 0.11 99 1010.0
20260505090031 41 258 10.0 21.0 0.08 0.10 0.09 99 1009.9
20260505085534 42 272 14.0 21.0 0.06 0.08 0.07 99 1010.0
20260505085038 42 270 12.0 21.0 0.05 0.07 0.06 99 1010.1
20260505084539 42 273 6.0 20.0 0.04 0.06 0.05 99 1010.0
20260505084043 42 250 10.0 18.0 0.03 0.05 0.04 99 1010.2
20260505083546 42 239 9.0 20.0 0.02 0.04 0.03 99 1010.0
20260505083049 42 257 12.0 20.0 0.02 0.04 0.03 99 1010.0
20260505082552 42 266 10.0 20.0 0.02 0.04 0.03 99 1010.2
20260505082054 42 258 12.0 20.0 0.02 0.04 0.03 99 1010.3
20260505081557 41 268 14.0 23.0 0.02 0.04 0.03 99 1010.2
20260505081101 41 269 15.0 23.0 0.01 0.03 0.02 99 1010.4
20260505080604 41 266 12.0 24.0 0.00 0.02 0.01 99 1010.4
20260505080107 41 268 12.0 26.0 0.00 0.02 0.01 99 1010.6
20260505075610 41 274 16.0 26.0 0.00 0.02 0.01 99 1010.6
20260505074711 40 274 18.0 28.0 0.00 0.02 0.01 99 1010.5
20260505074616 40 274 18.0 28.0 0.00 0.02 0.01 99 1010.5
20260505073711 40 264 17.0 30.0 0.00 0.02 0.01 99 1010.5
20260505073622 40 264 17.0 30.0 0.00 0.02 0.01 99 1010.5
20260505073159 41 271 20.0 30.0 0.00 0.02 0.01 99 1010.2
20260505073125 41 271 20.0 30.0 0.00 0.02 0.01 99 1010.2
20260505072627 41 264 18.0 30.0 0.00 0.02 0.01 99 1010.2
20260505072130 41 266 20.0 30.0 0.00 0.02 0.01 99 1010.3
20260505071739 41 268 16.0 28.0 0.00 0.02 0.01 99 1010.4
20260505071634 41 268 16.0 28.0 0.00 0.02 0.01 99 1010.4